Regional Weather Roundup
Issued by NWS New Orleans/Baton Rouge, LA

Home | Current Version | Previous Version | Text Only | Print | Product List | Glossary Off
Versions: 1 2 3 4 5 6 7 8 9 10 11 12 13 14 15 16 17 18 19 20 21 22 23 24 25 26 27 28 29 30 31 32 33 34 35 36 37 38 39 40 41 42 43 44 45 46 47 48 49 50

477
ASUS44 KLIX 270401
RWRLIX
NEW ORLEANS REGIONAL WEATHER ROUNDUP
NATIONAL WEATHER SERVICE NEW ORLEANS LA
1000 PM CST WED NOV 26 2014

NOTE: "FAIR" INDICATES FEW OR NO CLOUDS BELOW 12,000 FEET WITH NO
      SIGNIFICANT WEATHER AND/OR OBSTRUCTIONS TO VISIBILITY.
      SKY/WX - SKY CONDITION AND SIGNIFICANT WEATHER.
      TMP - AIR TEMPERATURE.     DP    - DEWPOINT TEMPERATURE.
      RH  - RELATIVE HUMIDITY.   PRES  - PRESSURE.
      HI  - HEAT INDEX.          WCI   - WIND CHILL INDEX.

*  THESE STATIONS ARE NOT NWS OR FAA STATIONS AND ARE NOT UNDER
   NWS QUALITY CONTROL.

LAZ038-040-048-061>063-065>067-069-270500-
SOUTHEAST LOUISIANA

CITY           SKY/WX    TMP DP  RH WIND       PRES   REMARKS
N.O. AUDUBON     N/A     53  47  82 MISG        N/A
N.O. INTL ARPT CLEAR     56  46  69 W10       30.25R
N.O. LAKEFRONT CLEAR     58  47  66 SW14      30.24S
N.O. DOWNTOWN*   N/A     55  43  62 S7        30.25S
SLIDELL        CLEAR     58  47  66 SW6       30.23R
BATON ROUGE    CLEAR     50  43  77 W7        30.25R
BOOTHVILLE     CLEAR     62  51  67 W13       30.27S
BELLE CHASSE   CLEAR     57  47  69 SW7       30.25R
BOGALUSA*        N/A     54  40  59 W5        30.24R
NEW ROADS*     NOT AVBL
GONZALES*      NOT AVBL
HAMMOND*       NOT AVBL
HOUMA*         CLEAR     54  50  88 SW3       30.27S
PORT FOURCHON* CLEAR     63  54  72 W12G18    30.31S

$$

MSZ070-080>082-270500-
SOUTHERN MISSISSIPPI

CITY           SKY/WX    TMP DP  RH WIND       PRES   REMARKS
MCCOMB         CLEAR     54  41  61 W6        30.22R
GULFPORT       CLEAR     55  45  68 W5        30.22R
BILOXI         CLEAR     57  46  65 W8        30.22R
PASCAGOULA     CLEAR     56  46  69 SW7       30.22R

$$

COASTAL OBSERVATIONS
LAKE AND NEARSHORE STATIONS

STATION/POSITION TIME  TEMP    WIND        PRES    WAVE
                       AIR SEA DIR/SP/G            HT/PER
                 (UTC) (F)     (DEG/KT/KT) (MB)    (FT/S)
PASCAGOULA       0300   60     250/ 13/ 19 1022.4
WAVELAND YACHT   0300   58     260/  6/ 10 1022.4
GRAND ISLE       0300   61 60  260/  9/ 12 1025.5
SOUTHWEST PASS   0300   66                 1025.6
NEW CANAL        0300   58 54  230/  8/ 11 1024.2
SHELL BEACH      0300   57 53  230/ 12/ 15 1023.7

OFFSHORE STATIONS

STATION/POSITION TIME  TEMP    WIND        PRES    WAVE
                       AIR SEA DIR/SP/G            HT/PER
                 (UTC) (F)     (DEG/KT/KT) (MB)    (FT/S)
64 S DAUPHIN ISL 0340   66 70  270/ 21/ 27 1025.4    4/ 5

$$




USA.gov is the U.S. government's official web portal to all federal, state and local government web resources and services.